www.pogodaiklimat.ru

Погода и климат >> Архив погоды >> Россия >> Дагестан >> Изберг


ПОГОДА в Изберге

  • Прогноз погоды в Изберге
  • Монитор погоды в Изберге

АРХИВ ПОГОДЫ в Изберге

Время (UTC), дата Ветер
(напр.,м/с)
 
Видим.   Явления Облачность Т
(С)
Тd
(С)
f
(%)
Тe
(С)
Тes
(С)
Комфортность P
(гПа)
Po
(гПа)
Тmin
(С)
Tmax
(С)
R
(мм)
R24
(мм)
S
(см)
09 9.07 С 7-11
{13}
20 км 9/4 600 м
[Cu med, cong Ac trans Cs]
+28.2 +18.9 57 +33 +35 очень
душно
1003.9 1006.0
12 9.07 З 3
{14}
20 км гроза, ливневой дождь 10/10 600 м
[Cb calv]
+26.5 +19.3 65 +32 +32 очень
душно
1005.6 1007.6
15 9.07 З 6
{13}
н/о {гроза, ливн. осадки} н/о +26.5 +17.0 56 +30 +30 душно 1006.0 1008.0 +30.3 0.7
18 9.07 З 7-11
{14}
20 км {гроза, ливн. осадки} 10/10 600 м
[Cb calv]
+27.3 +14.5 45 +30 +30 душно 1007.0 1009.0
21 9.07 З 6
{12}
20 км 10/4 600 м
[Cu hum Ac und]
+27.8 +12.6 39 +29 +29 жарко 1006.7 1008.7
00 10.07 СЗ 5
{12}
20 км 6/3 600 м
[Cu hum Ac trans]
+26.8 +13.1 43 +29 +29 жарко 1007.4 1009.5
03 10.07 СЗ 5 20 км 9/3 600 м
[Cu hum Ac und]
+26.8 +13.7 44 +29 +29 жарко 1008.6 1010.7 +25.9
06 10.07 СЗ 5
{10}
20 км 8/1 600 м
[Cu hum Ac und]
+28.8 +10.7 32 +29 +32 жарко 1008.1 1010.1
09 10.07 С 6
{10}
20 км 6/1 600 м
[Cu med, cong Ac trans Ci fib]
+28.1 +15.5 46 +31 +36 душно 1007.0 1009.0
12 10.07 С 3 20 км 8/0
[Ac trans Ci]
+28.1 +14.5 43 +30 +37 жарко 1006.8 1008.8
15 10.07 С 3 20 км 9/0
[Ci]
+26.0 +18.1 62 +31 +31 очень
душно
1006.4 1008.2 +29.9
18 10.07 С 1 20 км 3/0
[Ci fib]
+24.2 +19.4 75 +29 +29 душно 1007.3 1009.4
21 10.07 ЮЗ 3 20 км 8/0
[Cs]
+21.1 +14.6 66 +24 +24 комфорт 1006.4 1008.5
00 11.07 ЮЗ 2 20 км 10/3 600 м
[Cu hum Ci]
+20.1 +14.5 70 +23 +23 комфорт 1005.4 1007.5
03 11.07 Ю 2 20 км 6/4 600 м
[Cu hum Ac trans]
+22.9 +15.8 64 +27 +28 душно 1005.1 1007.2 +20.0
06 11.07 В 7 20 км 4/1 600 м
[Cu hum Ci fib]
+25.7 +20.3 72 +32 +35 очень
душно
1004.2 1006.3
09 11.07 ЮВ 8-10
{11}
20 км ясно +26.3 +20.9 72 +33 +36 очень
душно
1002.7 1004.7
12 11.07 ЮВ 8-10
{12}
20 км 6/6 600 м
[Cu med, cong]
+25.6 +21.2 77 +32 +33 очень
душно
1001.0 1003.0
15 11.07 ЮВ 6
{11}
20 км 8/3 600 м
[Cu hum Ci fib]
+24.9 +21.1 79 +31 +31 очень
душно
1000.4 1002.4 +26.8
18 11.07 ЮВ 4 20 км 8/4 600 м
[Cu hum Ac trans Ci fib]
+24.2 +21.4 84 +31 +31 очень
душно
1000.8 1002.9
21 11.07 СВ 1 20 км 10/3 600 м
[Cu hum Ac und Ci fib]
+24.0 +21.2 84 +30 +30 очень
душно
1000.8 1002.8
00 12.07 СЗ 1 20 км 10/6 600 м
[Cu med, cong Ac trans]
+24.0 +21.9 88 +31 +31 очень
душно
999.7 1001.7
03 12.07 СЗ 2 20 км 10/10 600 м
[Cu med, cong]
+24.3 +21.8 86 +31 +31 очень
душно
999.5 1001.6 +23.6
06 12.07 С 6 20 км 3/3 600 м
[Cu med, cong]
+26.1 +21.7 77 +34 +37 очень
душно
999.3 1001.4
09 12.07 С 7
{10}
20 км 4/1 600 м
[Cu hum Cs]
+27.5 +21.1 68 +35 +39 очень
душно
999.5 1001.6
12 12.07 СЗ 12-19
{19}
20 км 6/1 600 м
[Cu hum Cs]
+28.0 +16.7 50 +32 +32 душно 1000.5 1002.5
15 12.07 СЗ 12-18
{19}
20 км 10/10 600 м
[Cb calv]
+25.0 +15.4 55 +28 +28 жарко 1003.5 1005.6 +29.7
18 12.07 СЗ 6
{18}
20 км в посл. час гроза {ливн. осадки} 10/10 600 м
[Cb calv]
+23.2 +15.7 63 +28 +28 душно 1006.8 1008.9
21 12.07 С 7-11
{14}
20 км 10/6 600 м
[Cb calv Ac trans]
+22.5 +15.5 65 +26 +26 жарко 1008.4 1010.5
00 13.07 СЗ 10-14
{15}
20 км 10/3 600 м
[Cu hum Ac und]
+20.8 +14.0 65 +23 +23 комфорт 1007.6 1009.7
03 13.07 СЗ 7-11
{14}
20 км 10/10 600 м
[Cb calv Ac lent]
+20.3 +14.1 68 +22 +22 комфорт 1008.4 1010.5 +20.2 0.0
06 13.07 СЗ 6
{12}
20 км 10/6 600 м
[Cb calv Ac As]
+20.4 +13.7 65 +22 +23 комфорт 1008.9 1011.0
09 13.07 С 6-10
{10}
20 км 9/8 600 м
[Cb calv Ac trans]
+21.8 +13.9 61 +25 +26 комфорт 1008.7 1010.8
12 13.07 С 5
{11}
20 км 10/3 600 м
[Cu med, cong Ac As]
+22.5 +15.2 63 +26 +27 жарко 1008.9 1011.0
15 13.07 СЗ 2 20 км 8/1 600 м
[Cu hum Ac und]
+22.2 +15.5 66 +26 +26 душно 1009.2 1011.3 +22.5
18 13.07 З 3 20 км 10/0
[Ac und]
+21.2 +15.2 69 +24 +24 комфорт 1010.2 1012.3
21 13.07 СЗ 2 10 км слаб. ливневой дождь 10/10 600 м
[Cb cap]
+20.0 +16.0 78 +23 +23 комфорт 1009.9 1012.0
00 14.07 СЗ 5 10 км слаб. ливневой дождь 10/10 600 м
[Cb cap]
+18.5 +16.2 86 +19 +19 1010.3 1012.4
03 14.07 З 3 10 км слаб. ливневой дождь 10/10 600 м
[Cb cap]
+17.7 +14.9 84 +18 +18 1010.8 1012.9 +17.7 10
06 14.07 СЗ 2 20 км {ливн. осадки} 9/8 600 м
[Cb calv Ac trans]
+19.5 +15.0 75 +22 +24 комфорт 1010.5 1012.6 +17.6
09 14.07 С 4 50 км 9/3 600 м
[Cu med, cong Ac und Ci sp]
+21.4 +15.9 71 +25 +30 комфорт 1010.1 1012.2
12 14.07 СЗ 4 50 км 9/8 600 м
[Cb calv Ac trans]
+21.9 +15.7 68 +26 +27 душно 1010.7 1012.8
15 14.07 С 3 20 км 6/3 600 м
[Cu med, cong Ac trans Ci fib]
+22.6 +14.0 58 +26 +26 жарко 1011.7 1013.7 +23.2 2
18 14.07 Ю 3 20 км 8/0
[Ci]
+19.4 +15.0 76 +21 +21 комфорт 1011.3 1013.4
21 14.07 ЮЗ 3 20 км 4/0
[Ci fib]
+17.2 +13.6 79 +17 +17 1010.0 1012.1
00 15.07 ЮЗ 2 20 км 4/1 600 м
[Cu hum Ci]
+16.9 +13.6 81 +17 +17 1008.7 1010.8
03 15.07 ЮВ 2 50 км 8/0
[Ac lent Ci]
+20.0 +14.3 70 +23 +24 комфорт 1008.5 1010.6 +16.5
06 15.07 ЮВ 9-12
{12}
20 км 8/4 600 м
[Cu med, cong Ac trans]
+22.5 +17.1 72 +27 +28 душно 1007.9 1009.9
09 15.07 ЮВ 10-13
{13}
20 км 6/3 600 м
[Cu hum Ac cast Cs]
+24.2 +17.5 66 +28 +29 душно 1006.1 1008.2
12 15.07 ЮВ 10-13
{16}
20 км 8/5 600 м
[Cb calv Ac trans Ci fib]
+22.9 +18.0 74 +28 +29 душно 1005.0 1007.1
15 15.07 ЮВ 9-11
{13}
20 км 9/3 600 м
[Cu hum Ac trans Cs]
+23.0 +17.7 72 +28 +28 душно 1003.6 1005.7 +24.3
18 15.07 Ю 3
{11}
20 км 9/8 600 м
[Cu hum Ac trans]
+22.2 +17.4 74 +27 +27 душно 1004.1 1006.2
21 15.07 Ю 2 20 км 10/10 600 м
[Cu hum]
+22.0 +17.9 78 +27 +27 душно 1003.3 1005.4
00 16.07 СЗ 3 20 км 10/10 600 м
[Cu hum]
+22.0 +17.7 77 +27 +27 душно 1003.7 1005.8
03 16.07 СЗ 3 20 км 10/10 600 м
[Cb calv]
+22.1 +18.3 79 +27 +27 душно 1004.4 1006.5 +21.6

 

Местоположение метеостанции Изберг (Дагестан, Россия): широта 42.53 долгота 47.92 высота над уровнем моря -16 м.

В архиве по умолчанию представлена погода в Изберге за последнюю неделю. Архивные данные за месяц целиком и за предыдущие месяцы, начиная с января 2011 года, Вы можете получить, выбрав интересующий диапазон дат из раскрывающегося списка и нажав кнопку "Ввод!".


*Определитесь, кто Вы:
робот инопланетянин человек

Внимание! Время в таблицах - всемирное. Для получения местного времени необходимо прибавить поправку, которая равна 3 ч.

Смотрите также архив погоды в соседних городах и на ближайших метеорологических станциях:

Погода в Сергокале (Дагестан, Россия) (22 км)
Погода в Дербенте (Дагестан, Россия) (60 км)
Погода в Махачкале (Дагестан, Россия) (65 км)
Погода в Куппе (Дагестан, Россия) (68 км)
Погода в Буйнакске (Дагестан, Россия) (73 км)
Погода в Гунибе (Дагестан, Россия) (79 км)
Погода в Кумухе (Дагестан, Россия) (80 км)
Погода в Касумкенте (Дагестан, Россия) (98 км)
Погода в Хунзахе (Дагестан, Россия) (100 км)
Погода в Ахты (Дагестан, Россия) (119 км)

Пояснения к столбцам:

Ветер - указаны скорость ветра в м/с - средняя за 10 мин, порывы в срок и между сроками (в фигурных скобках) и направление, откуда дует ветер: С - северный, СВ - северо-восточный, В - восточный, ЮВ - юго-восточный, Ю - южный, ЮЗ - юго-западный, З - западный, СЗ - северо-западный.
Видимость - горизонтальная дальность видимости в метрах или километрах. При видимости от 1 до 10 км при отсутствии осадков обычно наблюдается дымка, при ухудшении видимости до 1 км и менее - туман. В сухую погоду видимость может ухудшаться дымом, пылью или мглою.
Явления - указаны атмосферные явления, наблюдавшиеся в срок или в последний час перед сроком; фигурными скобками обозначены явления, наблюдавшиеся между сроками (за 1-3 часа до срока); квадратными скобками обозначены град или гололедные отложения с указанием их диаметра в мм.
Облачность - указаны через наклонную черту общая и нижняя облачность в баллах и высота нижней границы облаков в метрах; квадратными скобками обозначены формы облаков: Ci - перистые, Cs - перисто-слоистые, Cc - перисто-кучевые, Ac - высококучевые, As - высокослоистые, Sc - слоисто-кучевые, Ns - слоисто-дождевые, Cu - кучевые, Cb - кучево-дождевые. Подробнее классификацию облаков см. в Атласе облаков (PDF).
T - Температура воздуха - температура, измеренная на высоте 2 м над землей.
Td - Температура точки росы - температура, при понижении до которой содержащийся в воздухе водяной пар достигнет насыщения.
f - Относительная влажность воздуха - влажноcть воздуха, измеренная на высоте 2 м над землей.
Te - Эффективная температура - температура, которую ощущает одетый по сезону человек в тени. Характеристика душности погоды. При расчете учитывается влияние влажности воздуха и скорости ветра на теплоощущения человека.
Tes - Эффективная температура на солнце - температура, которую ощущает человек, с поправкой на солнечный нагрев. Характеристика знойности погоды. Зависит от высоты солнца над горизонтом, облачности и скорости ветра. Ночью, в пасмурную погоду, а также при ветре 12 м/с и более поправка равна нулю.
P - Атмосферное давление - приведенное к уровню моря атмосферное давление.
Po - Атмосферное давление - измеренное на уровне метеостанции атмосферное давление.
Tmin - Минимальная температура - минимум температуры воздуха на высоте 2 м над землей.
Tmax - Максимальная температура - максимум температуры воздуха на высоте 2 м над землей.
R - Количество осадков - Количество выпавших осадков за период времени, мм. При наведении курсора мыши на число - период времени, за который выпало указанное количество осадков.
R24 - Количество осадков - Количество выпавших осадков за 24 часа, мм.
S - Снежный покров - Высота снежного покрова, см. При наведении курсора мыши на число - состояние снежного покрова и степень покрытия местности в баллах.